Regional Weather Roundup
Issued by NWS Cleveland, OH

Home | Current Version | Previous Version | Text Only | Print | Product List | Glossary Off
Versions: 1 2 3 4 5 6 7 8 9 10 11 12 13 14 15 16 17 18 19 20 21 22 23 24 25 26 27 28 29 30 31 32 33 34 35 36 37 38 39 40 41 42 43 44 45 46 47 48 49 50

501
ASUS41 KCLE 241410
RWRCLE
OHIO REGIONAL WEATHER ROUNDUP
NATIONAL WEATHER SERVICE WILMINGTON, OH
900 AM EST FRI FEB 24 2017

NOTE: "FAIR" INDICATES FEW OR NO CLOUDS BELOW 12,000 FEET WITH NO
SIGNIFICANT WEATHER AND/OR OBSTRUCTIONS TO VISIBILITY.

OHZ001>008-015>018-024>027-034-035-043-044-241500-
   NORTHWEST OHIO

CITY           SKY/WX    TMP DP  RH WIND       PRES   REMARKS
DEFIANCE       FAIR      57  53  86 S12       29.59S
FINDLAY        FAIR      63  53  70 S18G24    29.62F
TOLEDO EXPRESS PTSUNNY   47  47 100 VRB3      29.59F FOG
TOLEDO EXEC    FAIR      50  50 100 S5        29.61F FOG
LIMA           FAIR      63  55  75 S20G29    29.63F
$$

OHZ009>014-019>023-028>033-038-089-241500-
   NORTHEAST OHIO

CITY           SKY/WX    TMP DP  RH WIND       PRES   REMARKS
CLE-HOPKINS    PTSUNNY   64  53  67 S15G25    29.69F
CLE-LAKEFRONT  FAIR      64  54  69 S10       29.66F
CUY CO. ARPT   MOSUNNY   64  55  72 S13       29.70S
LORAIN-ELYRIA  FAIR      62  52  69 S20G26    29.68S
ASHTABULA      FAIR      60  54  80 S16       29.73S
AKRON-CANTON   PTSUNNY   61  52  72 S16       29.75S
WOOSTER        FAIR      60  53  77 S15       29.73F
MANSFIELD      PTSUNNY   61  53  75 S20G29    29.71S
YOUNGSTOWN     PTSUNNY   60  52  74 S10G18    29.76F
$$

OHZ042-051>053-060>062-070>072-077>081-241500-
  SOUTHWEST OHIO

CITY           SKY/WX    TMP DP  RH WIND       PRES   REMARKS
CINC-COVINGTON FAIR      64  54  69 S18G25    29.70S
CINC-LUNKEN    FAIR      63  54  72 S12       29.72S
HAMILTON       CLOUDY    65  55  70 S12G21    29.71R
DAYTON         FAIR      62  53  72 S18       29.70R
WRIGHT-PAT AFB FAIR      64  56  76 S20G26    29.69R
DAYTON GENERAL FAIR      62  54  74 S17       29.70R
WILMINGTON     FAIR      61  52  72 S17       29.72S
$$

OHZ036-037-039>041-045>050-054>059-063>069-073>076-082>088-241500-
  CENTRAL AND SOUTHEAST OHIO

CITY           SKY/WX    TMP DP  RH WIND       PRES   REMARKS
COLUMBUS       PTSUNNY   63  53  70 S13       29.73S
OSU AIRPORT    FAIR      60  54  80 S14       29.72S
BOLTON FIELD   MOSUNNY   57  54  88 S12       29.73F
RICKENBACK AFB PTSUNNY   62  54  74 S16G24    29.73F
NEWARK         FAIR      64  52  64 S16G23    29.74S
MARION         PTSUNNY   61  53  75 S16       29.70S
LANCASTER      FAIR      66  52  60 S15G23    29.76S
ZANESVILLE     FAIR      62  52  69 S15G21    29.78S
NEW PHILLY     FAIR      61  53  75 S8        29.78S
$$




USA.gov is the U.S. government's official web portal to all federal, state and local government web resources and services.